Weather History for Iron Mountain, MI

Change the Weather History Date:

Friday, February 8, 2013

  Actual Average Record
Temperature  
Mean Temperature 13 °F -  
Max Temperature 26 °F 27 °F 52 °F (1991)
Min Temperature 0 °F 0 °F -27 °F (1962)
Degree Days  
Heating Degree Days 52    
Moisture  
Dew Point 7 °F    
Average Humidity 75    
Maximum Humidity 88    
Minimum Humidity 51    
Precipitation  
Precipitation 0.00 in - - ()
Sea Level Pressure  
Sea Level Pressure 30.34 in    
Wind  
Wind Speed 7 mph (NNW)    
Max Wind Speed 12 mph    
Max Gust Speed -    
Visibility 10 miles    
Events      
Averages and records for this station are not official NWS values.
T = Trace of Precipitation, MM = Missing Value Source: NWS Daily Summary

Daily Weather History Graph

Daily Weather History Graph

Search for Another Location

Airport:

Trip Planner

Search our weather history database for the weather conditions in past years. The results will help you decide how hot, cold, wet, or windy it might be!

Date:

Astronomy

Feb. 08, 2013 Rise Set
Actual Time 7:04 AM CST 5:09 PM CST
Civil Twilight 6:33 AM CST 5:40 PM CST
Nautical Twilight 5:58 AM CST 6:15 PM CST
Astronomical Twilight 5:23 AM CST 6:50 PM CST
Moon 5:35 AM CST (2/8) 3:40 PM CST (2/8)
Length of Visible Light 11h 06m
Length of Day
10h 04m
Waning Crescent, 3% of the Moon is Illuminated
Feb 8
Waning Crescent
Feb 10
New
Feb 17
First Quarter
Feb 25
Full
Mar 4
Last Quarter

Hourly Weather History & Observations

Time (CST) Temp. Windchill Dew Point Humidity Pressure Visibility Wind Dir Wind Speed Gust Speed Precip Events Conditions
12:54 AM 17.1 °F 4.3 °F 12.0 °F 81% 30.23 in 10.0 mi NNW 11.5 mph - N/A   Overcast
1:54 AM 16.0 °F 4.4 °F 10.0 °F 77% 30.24 in 10.0 mi NNW 9.2 mph - N/A   Overcast
2:54 AM 15.1 °F 2.5 °F 10.0 °F 80% 30.25 in 10.0 mi NNW 10.4 mph - N/A   Mostly Cloudy
3:06 AM 14.0 °F 2.0 °F 8.6 °F 79% 30.17 in 10.0 mi NNW 9.2 mph - N/A   Scattered Clouds
3:54 AM 12.9 °F 0.7 °F 9.0 °F 84% 30.26 in 10.0 mi NNW 9.2 mph - N/A   Partly Cloudy
4:54 AM 10.0 °F -0.9 °F 6.1 °F 84% 30.28 in 10.0 mi NW 6.9 mph - N/A   Clear
6:54 AM 6.1 °F - 3.0 °F 87% 30.32 in 10.0 mi Calm Calm - N/A   Clear
7:54 AM 8.1 °F -4.3 °F 3.9 °F 83% 30.34 in 10.0 mi NNW 8.1 mph - N/A   Clear
8:54 AM 14.0 °F 2.9 °F 8.1 °F 77% 30.36 in 10.0 mi NNW 8.1 mph - N/A   Clear
9:54 AM 17.1 °F 8.7 °F 10.0 °F 74% 30.36 in 10.0 mi NNW 5.8 mph - N/A   Clear
10:54 AM 19.9 °F 7.9 °F 12.0 °F 71% 30.37 in 10.0 mi North 11.5 mph - N/A   Scattered Clouds
11:54 AM 21.9 °F 11.7 °F 12.0 °F 66% 30.36 in 10.0 mi North 9.2 mph - N/A   Clear
12:54 PM 23.0 °F 12.4 °F 10.9 °F 60% 30.36 in 10.0 mi North 10.4 mph - N/A   Clear
1:54 PM 24.1 °F 15.2 °F 10.9 °F 57% 30.35 in 10.0 mi North 8.1 mph - N/A   Clear
2:54 PM 26.1 °F 20.5 °F 10.0 °F 51% 30.35 in 10.0 mi NNE 4.6 mph - N/A   Clear
3:54 PM 25.0 °F 19.3 °F 9.0 °F 51% 30.35 in 10.0 mi NNE 4.6 mph - N/A   Clear
4:54 PM 23.0 °F 17.0 °F 8.1 °F 53% 30.37 in 10.0 mi North 4.6 mph - N/A   Clear
5:54 PM 10.9 °F - 5.0 °F 77% 30.38 in 10.0 mi Calm Calm - N/A   Clear
6:54 PM 7.0 °F - 3.9 °F 87% 30.38 in 10.0 mi Calm Calm - N/A   Clear
7:54 PM 12.0 °F - 6.1 °F 77% 30.39 in 10.0 mi Calm Calm - N/A   Clear
8:54 PM 3.9 °F - 1.0 °F 88% 30.40 in 10.0 mi Calm Calm - N/A   Clear
9:54 PM 3.0 °F - -0.9 °F 84% 30.41 in 10.0 mi Calm Calm - N/A   Clear
10:54 PM -0.0 °F - -2.9 °F 88% 30.40 in 9.0 mi Calm Calm - N/A   Clear
11:54 PM 1.0 °F - -2.9 °F 83% 30.39 in 10.0 mi Calm Calm - N/A   Clear